Shelby, NC

11:57 PM EDT on May 22, 2017 (GMT -0400)
Shelby Municipal

Weather History for KEHO - April, 2013

Change the Weather History Date:

Monday, April 1, 2013

  Actual Average (KHKY) Record (KHKY)
Temperature  
Mean Temperature 60 °F -  
Max Temperature 69 °F 68 °F 85 °F (1953)
Min Temperature 52 °F 42 °F 27 °F (1987)
Degree Days  
Heating Degree Days 4    
Growing Degree Days 10 (Base 50)    
Moisture  
Dew Point 43 °F    
Average Humidity 59    
Maximum Humidity 99    
Minimum Humidity 27    
Precipitation  
Precipitation 0.00 in - - ()
Sea Level Pressure  
Sea Level Pressure 29.90 in    
Wind  
Wind Speed 4 mph (WNW)    
Max Wind Speed 18 mph    
Max Gust Speed 26 mph    
Visibility 9 miles    
Events Rain    
Averages and records for this station are not official NWS values.
T = Trace of Precipitation, MM = Missing Value Source: NWS Daily Summary

Daily Weather History Graph

Daily Weather History Graph

Search for Another Location

Airport or City:

Trip Planner

Search our weather history database for the weather conditions in past years. The results will help you decide how hot, cold, wet, or windy it might be!

Date:

Astronomy

Apr. 01, 2013 Rise Set
Actual Time 7:12 AM EDT 7:48 PM EDT
Civil Twilight 6:47 AM EDT 8:13 PM EDT
Nautical Twilight 6:17 AM EDT 8:43 PM EDT
Astronomical Twilight 5:46 AM EDT 9:14 PM EDT
Moon 12:45 AM EDT (4/1) 11:07 AM EDT (4/1)
Length of Visible Light 13h 26m
Length of Day
12h 35m
Waning Gibbous, 67% of the Moon is Illuminated
Apr 1
Waning Gibbous
Apr 3
Last Quarter
Apr 10
New
Apr 18
First Quarter
Apr 25
Full

Hourly Weather History & Observations

Time (EDT) Temp. Dew Point Humidity Pressure Visibility Wind Dir Wind Speed Gust Speed Precip Events Conditions
12:15 AM 56.3 °F 53.4 °F 90% 29.85 in 10.0 mi Calm Calm - N/A   Overcast
12:35 AM 55.8 °F 53.6 °F 92% 29.85 in 10.0 mi Calm Calm - N/A   Overcast
12:55 AM 56.3 °F 53.6 °F 91% 29.86 in 10.0 mi Calm Calm - N/A   Overcast
1:15 AM 56.7 °F 53.2 °F 88% 29.86 in 10.0 mi Calm Calm - N/A   Overcast
1:35 AM 57.4 °F 53.6 °F 87% 29.86 in 10.0 mi Calm Calm - N/A   Light Drizzle
1:55 AM 57.4 °F 53.6 °F 87% 29.86 in 10.0 mi Calm Calm - N/A   Overcast
2:15 AM 55.6 °F 52.9 °F 91% 29.86 in 10.0 mi North 3.5 mph - N/A   Overcast
2:35 AM 54.9 °F 53.4 °F 95% 29.86 in 10.0 mi Calm Calm - N/A Rain Light Rain
2:55 AM 55.6 °F 53.6 °F 93% 29.85 in 10.0 mi Calm Calm - N/A   Light Drizzle
3:15 AM 55.8 °F 53.8 °F 93% 29.85 in 10.0 mi Calm Calm - N/A   Overcast
3:35 AM 55.4 °F 53.6 °F 94% 29.86 in 10.0 mi Calm Calm - N/A   Overcast
3:55 AM 54.7 °F 53.2 °F 95% 29.86 in 5.0 mi Calm Calm - N/A   Overcast
4:15 AM 54.0 °F 53.1 °F 97% 29.85 in 5.0 mi Calm Calm - N/A   Overcast
4:35 AM 54.0 °F 53.2 °F 97% 29.85 in 5.0 mi Calm Calm - N/A   Overcast
4:55 AM 54.0 °F 53.2 °F 97% 29.86 in 5.0 mi Calm Calm - N/A   Overcast
5:15 AM 54.0 °F 53.2 °F 97% 29.86 in 5.0 mi Calm Calm - N/A   Overcast
5:35 AM 53.8 °F 53.2 °F 98% 29.86 in 7.0 mi West 3.5 mph - N/A   Overcast
5:55 AM 54.0 °F 53.6 °F 99% 29.87 in 7.0 mi WSW 3.5 mph - N/A   Overcast
6:15 AM 54.0 °F 53.2 °F 97% 29.87 in 7.0 mi Calm Calm - N/A   Overcast
6:35 AM 53.4 °F 52.7 °F 97% 29.88 in 7.0 mi Calm Calm - N/A   Overcast
6:55 AM 53.2 °F 52.7 °F 98% 29.89 in 5.0 mi Calm Calm - N/A   Overcast
7:15 AM 53.2 °F 52.7 °F 98% 29.89 in 7.0 mi Calm Calm - N/A   Overcast
7:35 AM 53.1 °F 52.3 °F 97% 29.90 in 10.0 mi NW 4.6 mph - N/A   Overcast
7:55 AM 52.5 °F 51.1 °F 95% 29.90 in 10.0 mi NNW 3.5 mph - N/A   Mostly Cloudy
8:15 AM 52.2 °F 50.5 °F 94% 29.91 in 10.0 mi Calm Calm - N/A   Scattered Clouds
8:35 AM 52.0 °F 50.7 °F 95% 29.92 in 10.0 mi NW 3.5 mph - N/A   Clear
8:55 AM 54.5 °F 48.6 °F 80% 29.93 in 10.0 mi West 3.5 mph - N/A   Clear
9:15 AM 55.9 °F 46.2 °F 70% 29.93 in 10.0 mi NW 3.5 mph - N/A   Clear
9:35 AM 58.1 °F 39.9 °F 51% 29.92 in 10.0 mi NW 8.1 mph - N/A   Clear
9:55 AM 60.1 °F 37.2 °F 43% 29.93 in 10.0 mi NNW 6.9 mph - N/A   Clear
10:15 AM 61.2 °F 33.4 °F 35% 29.92 in 10.0 mi WNW 5.8 mph - N/A   Clear
10:35 AM 61.9 °F 34.9 °F 36% 29.92 in 10.0 mi WNW 8.1 mph - N/A   Clear
10:55 AM 62.4 °F 35.4 °F 37% 29.93 in 10.0 mi NW 6.9 mph - N/A   Clear
11:15 AM 63.1 °F 36.1 °F 37% 29.93 in 10.0 mi WNW 6.9 mph - N/A   Clear
11:35 AM 63.7 °F 36.5 °F 36% 29.93 in 10.0 mi Calm Calm - N/A   Clear
11:55 AM 65.3 °F 34.7 °F 32% 29.93 in 10.0 mi NW 10.4 mph - N/A   Clear
12:15 PM 65.7 °F 35.2 °F 32% 29.93 in 10.0 mi NW 9.2 mph - N/A   Clear
12:35 PM 65.7 °F 34.3 °F 31% 29.92 in 10.0 mi SW 5.8 mph - N/A   Clear
12:55 PM 67.1 °F 32.7 °F 28% 29.92 in 10.0 mi WNW 9.2 mph 18.4 mph N/A   Clear
1:15 PM 67.3 °F 34.2 °F 29% 29.91 in 10.0 mi West 10.4 mph 18.4 mph N/A   Clear
1:35 PM 68.0 °F 34.5 °F 29% 29.91 in 10.0 mi WNW 8.1 mph - N/A   Clear
1:55 PM 68.0 °F 34.3 °F 29% 29.90 in 10.0 mi WNW 10.4 mph 20.7 mph N/A   Clear
2:15 PM 69.1 °F 33.8 °F 27% 29.90 in 10.0 mi WNW 16.1 mph 24.2 mph N/A   Clear
2:35 PM 68.9 °F 33.4 °F 27% 29.90 in 10.0 mi WNW 16.1 mph 24.2 mph N/A   Clear
2:55 PM 68.9 °F 33.6 °F 27% 29.90 in 10.0 mi WNW 18.4 mph 25.3 mph N/A   Clear
3:15 PM 69.3 °F 34.2 °F 27% 29.89 in 10.0 mi WNW 16.1 mph 26.5 mph N/A   Clear
3:35 PM 69.6 °F 35.1 °F 28% 29.89 in 10.0 mi NW 17.3 mph 24.2 mph N/A   Clear
3:55 PM 68.9 °F 34.9 °F 29% 29.88 in 10.0 mi NW 16.1 mph 21.9 mph N/A   Clear
4:15 PM 68.7 °F 36.0 °F 30% 29.88 in 10.0 mi WNW 12.7 mph - N/A   Clear
4:35 PM 67.5 °F 36.1 °F 32% 29.89 in 10.0 mi NW 11.5 mph 18.4 mph N/A   Scattered Clouds
4:55 PM 67.8 °F 36.1 °F 31% 29.88 in 10.0 mi WNW 12.7 mph 20.7 mph N/A   Mostly Cloudy
5:15 PM 69.3 °F 37.0 °F 31% 29.88 in 10.0 mi WNW 11.5 mph - N/A   Scattered Clouds
5:35 PM 69.1 °F 35.8 °F 29% 29.88 in 10.0 mi NW 15.0 mph 21.9 mph N/A   Clear
5:55 PM 68.9 °F 36.3 °F 30% 29.88 in 10.0 mi NW 15.0 mph - N/A   Clear
6:15 PM 67.1 °F 36.3 °F 32% 29.88 in 10.0 mi NW 13.8 mph 19.6 mph N/A   Mostly Cloudy
6:35 PM 66.2 °F 37.0 °F 34% 29.89 in 10.0 mi NW 17.3 mph 25.3 mph N/A   Scattered Clouds
6:55 PM 65.3 °F 38.5 °F 37% 29.89 in 10.0 mi WNW 11.5 mph 24.2 mph N/A   Scattered Clouds
7:15 PM 63.7 °F 38.5 °F 39% 29.90 in 10.0 mi WNW 15.0 mph 18.4 mph N/A   Scattered Clouds
7:35 PM 62.8 °F 38.8 °F 41% 29.91 in 10.0 mi NW 8.1 mph 21.9 mph N/A   Scattered Clouds
7:55 PM 61.9 °F 39.2 °F 43% 29.91 in 10.0 mi WNW 10.4 mph 17.3 mph N/A   Scattered Clouds
8:15 PM 60.8 °F 38.1 °F 43% 29.91 in 10.0 mi WNW 11.5 mph 17.3 mph N/A   Scattered Clouds
8:35 PM 60.1 °F 38.1 °F 44% 29.92 in 10.0 mi NW 15.0 mph 20.7 mph N/A   Scattered Clouds
9:15 PM 59.2 °F 37.8 °F 45% 29.92 in 10.0 mi WNW 15.0 mph 20.7 mph N/A   Clear
9:35 PM 58.8 °F 37.8 °F 46% 29.93 in 10.0 mi WNW 11.5 mph - N/A   Clear
10:15 PM 57.2 °F 37.4 °F 48% 29.95 in 10.0 mi WNW 8.1 mph - N/A   Clear
10:35 PM 56.5 °F 37.0 °F 48% 29.96 in 10.0 mi WNW 8.1 mph - N/A   Clear
10:55 PM 55.6 °F 36.5 °F 49% 29.96 in 10.0 mi WNW 5.8 mph - N/A   Clear
11:15 PM 55.8 °F 35.8 °F 47% 29.96 in 10.0 mi WNW 11.5 mph 17.3 mph N/A   Clear
11:35 PM 56.5 °F 34.5 °F 44% 29.97 in 10.0 mi WNW 11.5 mph 17.3 mph N/A   Clear
11:55 PM 57.0 °F 32.4 °F 39% 29.97 in 10.0 mi WNW 15.0 mph 23.0 mph N/A   Clear